Location: downtown San Diego
(32.7310°N, 117.1990°W)
Time: 20:29:55
(UTC-07:00)

Daily predictions for brighter satellites

Satellite Brightness Start Highest point End
(mag) Time Altitude Azimuth Time Altitude Azimuth Time Altitude Azimuth
Cosmos 2227 Rocket 2.2 19:18:49 10° NNW 19:24:28 68° ENE 19:30:04 10° SSE
Ariane Rocket 3.0 19:23:03 10° SSE 19:28:06 73° ENE 19:33:11 10° N
Cosmos 1934 Rocket 4.4 19:22:09 10° NNW 19:28:16 68° W 19:34:17 10° S
SEDSat Delta rocket 3.1 19:25:36 10° WSW 19:29:34 55° SSE 19:33:45 10° E
Cosmos 1605 Rocket 4.0 19:24:56 10° N 19:31:11 81° E 19:37:30 10° S
Cosmos 1939 Rocket 4.0 19:31:22 10° SE 19:34:39 25° ENE 19:37:59 10° NNE
Hubble Space Telescope 2.5 19:32:57 10° SSW 19:35:50 18° SSE 19:38:43 10° ESE
Cosmos 1727 Rocket 4.0 19:30:36 10° S 19:36:51 83° E 19:43:12 10° N
Cosmos 1697 Rocket 3.0 19:32:08 10° SSW 19:37:46 72° WNW 19:43:25 10° NNE
FengYun 1-2 T 4.4 19:34:11 10° S 19:39:39 78° WSW 19:45:09 10° NNW
Cosmos 2322 Rocket 3.7 19:37:33 10° SE 19:40:11 14° E 19:42:49 10° ENE
ASTRO E2 4.3 19:40:31 10° SSW 19:43:30 20° SSE 19:45:55 13° ESE
Cosmos 1340 2.6 19:40:49 10° S 19:44:35 88° E 19:48:22 10° N
Cosmos 371 Rocket 3.4 19:41:01 10° NNW 19:45:50 81° WSW 19:50:37 10° SSE
Cosmos 1805 4.5 19:42:55 10° SE 19:45:51 21° E 19:48:49 10° NE
Cosmos 2360 4.2 19:43:19 10° SSW 19:49:00 83° ESE 19:54:44 10° NNE
Cosmos 1190 Rocket 4.0 19:47:21 10° S 19:52:33 64° ESE 19:57:49 10° NNE
SJ-6B 3.9 19:50:35 14° ESE 19:52:50 23° ENE 19:55:50 10° NNE
YAOGAN 6 2.7 19:50:38 10° S 19:54:19 84° W 19:58:01 10° NNW
Cosmos 1707 2.7 19:50:43 10° N 19:54:36 89° WSW 19:58:27 10° S
Cosmos 304 Rocket 4.1 19:50:12 10° N 19:54:48 44° ENE 19:59:22 10° SE
NOSS 3-2 (C) 4.3 19:52:28 10° SSE 19:56:57 23° ESE 20:01:42 10° ENE
Cosmos 614 Rocket 4.0 19:54:13 10° S 19:59:16 60° ESE 20:04:23 10° NNE
OAO 3 Rocket 4.2 19:57:45 10° W 20:02:17 41° SSW 20:06:08 14° SE
Cosmos 407 Rocket 3.5 19:57:55 10° SSW 20:03:14 89° ESE 20:08:31 10° NNE
SL-16 R/B 3.0 19:59:57 10° SSE 20:04:39 27° ESE 20:09:22 10° NE
NOSS 3-2 (A) 3.6 19:59:43 10° S 20:04:59 43° ESE 20:10:42 10° NE
In-Cosmos 22 4.2 19:59:40 10° N 20:05:08 57° E 20:10:25 10° SSE
Cosmos 1544 Rocket 4.5 20:01:04 10° SSW 20:05:18 52° W 20:09:33 10° N
Cosmos 2263 Rocket 3.9 20:03:56 10° NNE 20:06:29 13° NE 20:07:09 13° ENE
Cosmos 2297 Rocket 3.3 20:02:56 10° NNW 20:08:20 47° WSW 20:13:41 10° S
Cosmos 1602 Rocket 3.9 20:06:25 10° N 20:10:35 41° E 20:13:34 18° SE
Cosmos 2082 4.0 20:07:21 10° NNW 20:12:55 68° WSW 20:18:29 10° S
Cosmos 2123 Rocket 4.2 20:07:33 10° SSE 20:13:20 44° E 20:19:08 10° NNE
FALCON 9 R/B 3.9 19:17:29 10° W 20:16:06 64° SSW 20:22:02 21° SE
CZ-2D R/B 4.0 20:13:56 10° S 20:17:41 54° W 20:21:29 10° NNW
ATLAS 3B R/B 3.0 20:11:46 10° S 20:18:13 41° ESE 20:24:29 10° NE
Resurs 01 Rocket 3.2 20:19:54 19° NE 20:19:54 19° NE 20:22:18 10° NNE
Delta 2 Rocket 3.6 20:15:37 10° W 20:19:47 55° N 20:21:25 30° ENE
GP-B 4.4 20:16:32 10° SSW 20:20:44 43° W 20:24:58 10° NNW
USA 186 1.9 20:21:24 43° ESE 20:22:07 54° ENE 20:25:22 10° N
Cosmos 1140 Rocket 3.4 20:17:34 10° S 20:22:47 80° ESE 20:28:03 10° NNE
Cosmos 2016 Rocket 4.0 20:21:03 10° N 20:27:12 55° E 20:32:10 16° SSE
COBE Rocket 3.9 20:24:32 10° NNE 20:29:17 53° E 20:33:52 10° S
Cosmos 2100 Rocket 4.1 20:26:19 10° N 20:32:36 81° W 20:38:55 10° S
Cosmos 1980 Rocket 3.4 20:27:35 10° SW 20:32:55 43° WNW 20:38:21 10° N
CZ-4C R/B 3.4 20:26:08 10° NNW 20:33:12 43° NE 20:36:21 31° E
ATLAS 2A CENTAUR R/B 4.3 20:28:34 10° WSW 20:34:07 64° SSE 20:46:47 26° E
USA 267 3.7 20:33:29 31° E 20:35:02 35° SE 20:40:53 10° S
Meteor 1-24 Rocket 3.5 20:30:05 10° N 20:35:21 60° E 20:37:46 31° SSE
Cosmos 1954 Rocket 3.9 20:30:11 10° SSW 20:35:30 87° ESE 20:40:50 10° NNE
Cosmos 676 Rocket 4.1 20:31:28 10° SSW 20:36:48 82° WNW 20:42:09 10° NNE
Cosmos 2173 Rocket 4.0 20:32:02 10° N 20:38:11 79° W 20:44:22 10° S
Cosmos 1674 3.4 20:35:11 10° N 20:37:53 38° NE 20:37:53 38° NE
Cosmos 1766 3.9 20:35:43 10° SSW 20:39:29 54° W 20:43:17 10° N
SL-8 R/B 4.1 20:35:57 10° WNW 20:40:42 58° SW 20:42:23 37° SSE
ARGOS 3.8 20:42:26 36° ENE 20:42:26 36° ENE 20:47:10 10° N
Cosmos 2061 Rocket 4.0 20:38:46 10° N 20:45:09 89° E 20:51:32 10° S
Meteor 2-5 Rocket 3.9 20:40:57 10° NNW 20:46:26 68° W 20:51:54 10° S
SPOT 3 Rocket 4.2 20:41:33 10° S 20:46:40 57° W 20:51:48 10° NNW
DELTA 2 R/B (1) 3.9 20:41:42 10° W 20:47:14 64° NNW 20:49:35 34° NE
Cosmos 1802 Rocket 4.1 20:45:40 10° N 20:51:48 74° W 20:57:53 10° S
Cosmos 1864 Rocket 4.4 20:47:43 10° N 20:54:05 72° E 20:56:43 37° SSE
Iridium 4 Rocket 4.0 20:50:36 10° SSW 20:55:00 52° W 20:59:50 10° N
Cosmos 1725 Rocket 3.8 20:51:47 10° N 20:58:03 77° E 21:00:23 41° SSE
H-2A R/B 2.5 20:58:46 47° NE 20:58:46 47° NE 21:03:18 10° N
Resurs 1-3 4.4 21:15:42 48° NNW 21:15:42 48° NNW 21:18:57 10° NNW
SEDSat Delta rocket 4.0 21:11:18 10° W 21:14:07 42° WSW 21:14:07 42° WSW
Hubble Space Telescope 2.9 21:12:44 10° WSW 21:14:11 20° SW 21:14:11 20° SW
Cosmos 2322 Rocket 2.6 21:18:03 10° SSW 21:23:35 61° WNW 21:29:08 10° NNE
NOSS 3-2 (C) 4.4 21:41:45 10° SW 21:47:21 44° NW 21:53:30 10° NNE
SL-16 R/B 3.7 21:43:31 10° SW 21:48:33 33° WNW 21:53:38 10° N
Cosmos 2263 Rocket 3.3 21:45:23 10° NNW 21:48:53 40° NNW 21:48:53 40° NNW
Resurs 01 Rocket 4.0 21:57:28 20° NW 21:57:28 20° NW 21:59:16 10° NW
ATLAS 3B R/B 4.1 22:02:42 10° WSW 22:08:53 34° NW 22:14:57 10° NNE
CZ-4C R/B 3.9 22:14:44 10° NW 22:21:35 41° WSW 22:21:35 41° WSW
CZ-3 Stage 3 4.1 21:42:14 10° WSW 22:31:01 82° SSW 22:31:01 82° SSW
